Torna al catalogo

COSMOS 886 DEB

AttivoLEO
NORAD 9823·DEBRIS·🇷🇺 Russia

Lanciato Dec 27, 1976 da Baikonur Cosmodrome

Loading…

Prossimi Passaggi (prossime 24 ore)

TLE

AggiornatoSource: Space-Track

Epoca: Sep 14, 2026, 09:49 UTC

1 09823U 76126AK  26257.40928485  .00000576  00000-0  28152-3 0  9995
2 09823  65.7983 310.4790 0910399 340.9676  15.9276 13.00549807326673

Traccia COSMOS 886 DEB in tempo reale con AllMySat

Download on the App Store